Location: Unspecified
(49.2170°N, 0.0000°E)
Time: 17:00:48
(UTC+00:00)

Envisat - Pass Details

Date: 01 December 2020
Orbit: 764 x 766 km, 98.1° (Epoch: 20 January)

Event Time Altitude Azimuth Distance (km) Brightness Sun altitude
Rises 05:17:18 0° 20° (NNE) 3,246 6.4 -21.5°
Reaches altitude 10° 05:19:49 10° 30° (NNE) 2,315 5.7 -21.1°
Maximum altitude 05:24:28 35° 96° (E) 1,220 4.7 -20.3°
Drops below altitude 10° 05:29:06 10° 162° (SSE) 2,298 5.8 -19.6°
Sets 05:31:35 0° 171° (S) 3,219 6.5 -19.2°
